"Pseudo-MPEC" for P112hFu

Created 2020 Jul 1 1:07:11 UT using Find_Orb

Click here for an explanation of pseudo-MPECs

 
 Astrometry: 
     P112hFu  C2020 06 17%CFJs47-6g-wkO2_nkTrVlqOmj^cF$Z%!'*uoA\_.i]yo9f:G^p:F52
     P112hFu  C2020 06 17UE-E]KF;+%=f/l5PNu8q2l5[+!O,9EFnE.n\3:Rr?o_);N3i#L`iF52
     P112hFu  C2020 06 17rOJW*ScCy07xr+4+yf#s5Pk5?H;Y83bjlpT5IM!62iAfVx_k;;B`F52
     P112hFu  C2020 06 17P;bFOAstrometryTY7q$*A2?DPFy@3h;SD98j.Sfn][W)01=\A,WF52
     P112hFu  C2020 06 26-%U]T#mCFA1^1@kwredacted;h(Yy2Ce)EG$+Y114nkiK^2C^STvF51
     P112hFu  C2020 06 26?Ngpclick=oO[M'dr)h$yiPGZsrr_o0mJ,2xM(ov22X_mvWv?5lrF51
     P112hFu  C2020 06 26$Ct8ldVtIf[-=4*O4m8FD1[6^:3X,*$K`@E/,D%3amqkm3%:%87;F51
     P112hFu  C2020 06 26)O/-;2f`RfI9lmY/eQ2dYLD_?\TH1cs$s+EY71]PW*H693AmE,MLF51
     P112hFu  C2020 06 29PfEf@mR)eK-^0RrG=Uxt91S4RF38M9C9^cY+;bq@J/*V'Rt6*n**F51
     P112hFu  C2020 06 29Y]r2]`$1yG$81^CFnGJ$Q'_]!PgIhereZL)qD;.^?s8AxPR\forMF51
     P112hFu  C2020 06 29X\BY-eh9HCCjlWu(:j7yd07+.A7jnI'j]4DHV8Jy[:kmVAuK12JuF51
     P112hFu  C2020 06 30C;Z+\KP*uWOXEMZ!e*!EknU2Cx0*M-explanationEb8[3h@.EI@F51
     P112hFu  C2020 06 30jvEb+E=*ke_W.@UJ]KJE_X,YA,(;P%vA!A8_f#DDeS^ijcm5'RHhF51
     P112hFu  C2020 06 302itn*JMnUv`:bc9`)Wng^Pmt2FB2eNZIR.$SY)=NkgRcxFPy*[lXF51

Station data:
(F51) Pan-STARRS 1, Haleakala  (N20.707235 W156.255910)  US/Hawaii.
   Observers N. Primak, A. Schultz, S. Watters, J. Thiel, T. Goggia. Measurer
   PS1 Science Consortium. 1.8-m Ritchey-Chrétien + CCD.
(F52) Pan-STARRS 2, Haleakala  (N20.707384 W156.255910)  US/Hawaii. 1.8-m
   Ritchey-Chrétien + CCD.

Orbital elements:  P112hFu
   Perihelion 2020 Nov 1.095892 +/- 0.0393 TT =  2:18:05 (JD 2459154.595892)
Epoch 2020 Jun 30.0 TT = JDT 2459030.5   Earth MOID: 0.1442   AutoNEOCP
M 206.86871021 +/- 0.045            (J2000 ecliptic)
n   1.23397549 +/- 9.65e-5          Peri.  171.26400 +/- 0.012
a   0.86085834 +/- 4.49e-5          Node   287.54220 +/- 0.008
e   0.4914203 +/- 0.000336          Incl.   15.34216 +/- 0.019
P   0.80/291.73d           H 22.1   G  0.15   U  6.6  
q 0.43781504 +/- 0.000292    Q 1.28390164 +/- 0.000292
From 14 observations 2020 June 17-30; mean residual 0".14
Residuals in arcseconds: 
200617 F52  .28-  .29+    200626 F51  .07-  .04-    200629 F51  .11-  .16+    
200617 F52  .01-  .01-    200626 F51  .00   .03+    200630 F51  .04-  .11+    
200617 F52  .32+  .28-    200626 F51  .20+  .00     200630 F51  .00   .18-    
200617 F52  .02-  .01+    200629 F51  .17+  .10-    200630 F51  .04+  .01-    
200626 F51  .12-  .02-    200629 F51  .08-  .07+    

Ephemerides (geocentric):
Date (UTC) HH   RA              Dec         delta   r     elong  mag " sig PA
---- -- -- --  -------------   -----------  ------ ------ -----  --- ---- ---
2020 07 01 01  21 46 27.163   -10 45 13.64  .32030 1.2609 134.1 21.6 .177  51
2020 07 01 02  21 46 21.910   -10 44 09.09  .31998 1.2608 134.2 21.6 .182  51
2020 07 01 03  21 46 16.640   -10 43 04.45  .31967 1.2607 134.3 21.6 .187  51
2020 07 01 04  21 46 11.354   -10 41 59.72  .31936 1.2606 134.3 21.6 .192  51
2020 07 01 05  21 46 06.052   -10 40 54.89  .31904 1.2605 134.4 21.6 .197  51
2020 07 01 06  21 46 00.733   -10 39 49.97  .31873 1.2605 134.4 21.6 .203  51
2020 07 01 07  21 45 55.398   -10 38 44.96  .31842 1.2604 134.5 21.6 .208  51
2020 07 01 08  21 45 50.045   -10 37 39.85  .31810 1.2603 134.5 21.6 .213  51
2020 07 01 09  21 45 44.677   -10 36 34.66  .31779 1.2602 134.6 21.6 .218  51
2020 07 01 10  21 45 39.291   -10 35 29.36  .31748 1.2601 134.6 21.6 .223  50
2020 07 01 11  21 45 33.889   -10 34 23.98  .31717 1.2600 134.7 21.6 .229  50
2020 07 01 12  21 45 28.470   -10 33 18.50  .31685 1.2599 134.7 21.6 .234  50
2020 07 01 13  21 45 23.035   -10 32 12.92  .31654 1.2599 134.8 21.6 .239  50
2020 07 01 14  21 45 17.582   -10 31 07.25  .31623 1.2598 134.8 21.6 .245  50
2020 07 01 15  21 45 12.113   -10 30 01.49  .31592 1.2597 134.9 21.6 .250  50
2020 07 01 16  21 45 06.627   -10 28 55.63  .31561 1.2596 134.9 21.5 .256  50
2020 07 01 17  21 45 01.124   -10 27 49.68  .31530 1.2595 135.0 21.5 .261  50
2020 07 01 18  21 44 55.604   -10 26 43.63  .31499 1.2594 135.0 21.5 .267  50
2020 07 01 19  21 44 50.067   -10 25 37.48  .31467 1.2593 135.1 21.5 .272  50
2020 07 01 20  21 44 44.513   -10 24 31.24  .31436 1.2592 135.2 21.5 .278  50
2020 07 01 21  21 44 38.942   -10 23 24.90  .31405 1.2592 135.2 21.5 .283  49
2020 07 01 22  21 44 33.354   -10 22 18.47  .31374 1.2591 135.3 21.5 .289  49
2020 07 01 23  21 44 27.749   -10 21 11.94  .31343 1.2590 135.3 21.5 .295  49
2020 07 02 00  21 44 22.127   -10 20 05.31  .31312 1.2589 135.4 21.5 .300  49
2020 07 02 01  21 44 16.488   -10 18 58.58  .31281 1.2588 135.4 21.5 .306  49
2020 07 02 02  21 44 10.831   -10 17 51.76  .31250 1.2587 135.5 21.5 .312  49
2020 07 02 03  21 44 05.157   -10 16 44.84  .31219 1.2586 135.5 21.5 .318  49
2020 07 02 04  21 43 59.466   -10 15 37.82  .31188 1.2585 135.6 21.5 .324  49
2020 07 02 05  21 43 53.757   -10 14 30.71  .31157 1.2585 135.6 21.5 .329  49
2020 07 02 06  21 43 48.032   -10 13 23.49  .31127 1.2584 135.7 21.5 .335  49
2020 07 02 07  21 43 42.288   -10 12 16.18  .31096 1.2583 135.8 21.5 .341  49
2020 07 02 08  21 43 36.528   -10 11 08.77  .31065 1.2582 135.8 21.5 .347  49
2020 07 02 09  21 43 30.750   -10 10 01.25  .31034 1.2581 135.9 21.5 .353  49
2020 07 02 10  21 43 24.954   -10 08 53.64  .31003 1.2580 135.9 21.5 .359  48
2020 07 02 11  21 43 19.141   -10 07 45.93  .30972 1.2579 136.0 21.5 .365  48
2020 07 02 12  21 43 13.311   -10 06 38.12  .30941 1.2578 136.0 21.5 .372  48
2020 07 02 13  21 43 07.462   -10 05 30.21  .30911 1.2577 136.1 21.5 .378  48
2020 07 02 14  21 43 01.597   -10 04 22.20  .30880 1.2576 136.1 21.5 .384  48
2020 07 02 15  21 42 55.713   -10 03 14.09  .30849 1.2576 136.2 21.5 .390  48
2020 07 02 16  21 42 49.812   -10 02 05.88  .30818 1.2575 136.2 21.5 .396  48
2020 07 02 17  21 42 43.893   -10 00 57.56  .30788 1.2574 136.3 21.5 .403  48
2020 07 02 18  21 42 37.956   -09 59 49.15  .30757 1.2573 136.3 21.5 .409  48
2020 07 02 19  21 42 32.002   -09 58 40.63  .30726 1.2572 136.4 21.5 .415  48
2020 07 02 20  21 42 26.030   -09 57 32.01  .30696 1.2571 136.5 21.5 .422  48
2020 07 02 21  21 42 20.039   -09 56 23.29  .30665 1.2570 136.5 21.5 .428  48
2020 07 02 22  21 42 14.031   -09 55 14.47  .30634 1.2569 136.6 21.4 .435  48
2020 07 02 23  21 42 08.005   -09 54 05.55  .30604 1.2568 136.6 21.4 .441  48
2020 07 03 00  21 42 01.961   -09 52 56.52  .30573 1.2567 136.7 21.4 .448  48